This is the latest recevied weather packets stored in our database for station/object IA5ITY-13. If no packets are shown the sender has not sent any weather packets the latest 10 day(s).
| Time | Temp. | Humidity | Pressure | Rain* | Wind** | Luminosity | Snow |
|---|---|---|---|---|---|---|---|
| 1777656012 | 20° C | 44% | 1021.3 hPa | 0 mm | - | - | - |
| 1777655712 | 20° C | 46% | 1021.2 hPa | 0 mm | - | - | - |
| 1777655412 | 20° C | 48% | 1021.2 hPa | 0 mm | - | - | - |
| 1777655109 | 20° C | 47% | 1021.2 hPa | 0 mm | - | - | - |
| 1777654833 | 20° C | 45% | 1021.2 hPa | 0 mm | - | - | - |
| 1777654509 | 20° C | 45% | 1021.1 hPa | 0 mm | - | - | - |
| 1777654213 | 21.11° C | 34% | 1021.2 hPa | 0 mm | - | - | - |
| 1777653912 | 21.11° C | 38% | 1021.2 hPa | 0 mm | - | - | - |
| 1777653612 | 21.11° C | 40% | 1021.2 hPa | 0 mm | - | - | - |
| 1777653309 | 21.11° C | 38% | 1021.2 hPa | 0 mm | - | - | - |
| 1777653023 | 20° C | 42% | 1021.3 hPa | 0 mm | - | - | - |
| 1777652709 | 20° C | 44% | 1021.4 hPa | 0 mm | - | - | - |
| 1777652412 | 20° C | 48% | 1021.4 hPa | 0 mm | - | - | - |
| 1777652112 | 20° C | 46% | 1021.5 hPa | 0 mm | - | - | - |
| 1777651813 | 21.11° C | 41% | 1021.4 hPa | 0 mm | - | - | - |
| 1777651509 | 21.11° C | 31% | 1021.3 hPa | 0 mm | - | - | - |
| 1777651234 | 22.22° C | 27% | 1021.3 hPa | 0 mm | - | - | - |
| 1777650911 | 22.22° C | 29% | 1021.1 hPa | 0 mm | - | - | - |
| 1777650312 | 22.22° C | 26% | 1021.5 hPa | 0 mm | - | - | - |
| 1777650012 | 22.22° C | 27% | 1021.5 hPa | 0 mm | - | - | - |
| 1777649709 | 22.22° C | 28% | 1021.5 hPa | 0 mm | - | - | - |
| 1777649424 | 22.22° C | 28% | 1021.5 hPa | 0 mm | - | - | - |
| 1777649109 | 22.22° C | 30% | 1021.4 hPa | 0 mm | - | - | - |
| 1777648812 | 22.22° C | 30% | 1021.6 hPa | 0 mm | - | - | - |
| 1777648512 | 21.11° C | 38% | 1021.4 hPa | 0 mm | - | - | - |
* Rain latest hour (hover to see other rain measurements)
** Current wind speed in m/s (hover to see current wind gust speed)